Regional Weather Roundup
Issued by NWS

Home | Current Version | Previous Version | Graphics & Text | Print | Product List | Glossary Off
Versions: 1 2 3 4 5 6 7 8 9 10 11 12 13 14 15 16 17 18 19 20 21 22 23 24 25 26 27 28 29 30 31 32 33 34 35 36 37 38 39 40 41 42 43 44 45 46 47 48 49 50

000
ASUS43 KMKX 242021
RWRWI

WISCONSIN REGIONAL WEATHER ROUNDUP
NATIONAL WEATHER SERVICE MILWAUKEE/SULLIVAN WI
200 PM CST WED DEC 24 2014

NOTE: "FAIR" INDICATES FEW OR NO CLOUDS BELOW 12,000 FEET WITH NO
SIGNIFICANT WEATHER AND/OR OBSTRUCTIONS TO VISIBILITY.

WIZ001-002-006>008-014>016-023>028-242100-
NORTHWEST WISCONSIN

CITY           SKY/WX    TMP DP  RH WIND       PRES   REMARKS
SUPERIOR ARPT  CLOUDY    36  31  81 NW3       29.62F
ASHLAND        LGT SNOW  33  32  96 N5        29.60F FOG     WCI  29
HAYWARD        CLOUDY    34  30  85 VRB6      29.59F WCI  29
SIREN          CLOUDY    35  32  90 N6        29.62F WCI  29
CUMBERLAND     CLOUDY    34  30  86 NW9       29.60F WCI  26
RICE LAKE      CLOUDY    35  31  85 NW6       29.61F WCI  30
CHETEK         CLOUDY    33  32  93 NW3       29.60F
LADYSMITH      CLOUDY    35  31  86 N8        29.58F WCI  28
EAU CLAIRE     CLOUDY    36  31  82 NW10      29.59F WCI  28
MENOMONIE      CLOUDY    37  32  82 NW10      29.60F WCI  30
NEW RICHMOND   CLOUDY    35  32  90 N7        29.63F WCI  29
OSCEOLA        CLOUDY    36  34  94 NW8       29.66F WCI  29
$$

WIZ003>005-009-010-017-018-242100-
NORTH CENTRAL WISCONSIN

CITY           SKY/WX    TMP DP  RH WIND       PRES   REMARKS
MANITOWISH WTR CLOUDY    31  29  93 N6        29.52F WCI  25
ARBOR VITAE    CLOUDY    32  29  90 N5        29.51F WCI  27
WOODRUFF       CLOUDY    32  29  90 N5        29.51F WCI  27
RHINELANDER    CLOUDY    31  28  89 VRB6      29.51F WCI  25
EAGLE RIVER    CLOUDY    31  30  94 N5        29.50F WCI  26
LAND O LAKES   CLOUDY    31  29  92 N7        29.51F WCI  24
PHILLIPS       CLOUDY    32  29  88 N3        29.53F
TOMAHAWK       CLOUDY    31  29  90 CALM      29.53F
MEDFORD        CLOUDY    32  29  88 N8        29.53F WCI  25
MERRILL        CLOUDY    32  31  93 N8        29.52F WCI  25
$$

WIZ029-030-035-036-043>047-242100-
CENTRAL WISCONSIN

CITY           SKY/WX    TMP DP  RH WIND       PRES   REMARKS
WAUSAU         CLOUDY    34  30  85 NW7       29.50F WCI  28
MOSINEE        CLOUDY    34  34 100 NW8       29.52F WCI  27
MARSHFIELD     CLOUDY    35  30  82 N8        29.52F WCI  29
STEVENS POINT  CLOUDY    32  31  96 N5        29.51F WCI  27
WAUPACA        CLOUDY    36  35  96 NW3       29.50F FOG
WAUTOMA        CLOUDY    35  35 100 CALM      29.51F
WISC RAPIDS    CLOUDY    35  31  85 NW7       29.53F WCI  29
CAMP DOUGLAS   CLOUDY    36  36 100 NW7       29.54S WCI  30
$$

WIZ011>013-019>022-031-037>040-048>050-242100-
NORTHEAST WISCONSIN

CITY           SKY/WX    TMP DP  RH WIND       PRES   REMARKS
ANTIGO         CLOUDY    32  30  94 N9        29.49F WCI  24
SHAWANO        CLOUDY    36  35  96 N6        29.50F WCI  31
OCONTO         CLOUDY    34  34 100 N6        29.48F VSB 1   WCI  29
STURGEON BAY   CLOUDY    36  32  87 N9        29.48F VSB 1/4 WCI  29
GREEN BAY      CLOUDY    35  34  96 N9        29.48F WCI  28
MANITOWOC      CLOUDY    37  36  96 NW6       29.48F WCI  32
APPLETON       DRZL/FOG  34  34 100 N9        29.48F VSB 1/2 WCI  26
CLINTONVILLE   DRIZZLE   34  34 100 N5        29.49F WCI  30
OSHKOSH        CLOUDY    35  33  92 N10       29.47F WCI  27
$$

WIZ032>034-041-042-053>061-242100-
SOUTHWEST WISCONSIN

CITY           SKY/WX    TMP DP  RH WIND       PRES   REMARKS
LA CROSSE      CLOUDY    38  32  79 NW12      29.58F WCI  30
SPARTA         CLOUDY    35  33  92 NW7       29.57F WCI  29
VIROQUA        CLOUDY    33  33 100 N8        29.54F WCI  26
BOSCOBEL       CLOUDY    37  32  82 NW12G17   29.57S WCI  29
PRAIRIE DU CHI CLOUDY    37  32  82 NW9       29.57F WCI  30
PLATTEVILLE    CLOUDY    34  32  92 CALM      29.55S
$$

WIZ056-057-062-063-064-067-068-242100-
SOUTH CENTRAL WISCONSIN

CITY           SKY/WX    TMP DP  RH WIND       PRES   REMARKS
REEDSBURG      DRIZZLE   33  32  97 NW8       29.52F WCI  26
BARABOO/DELLS  LGT RAIN  33  32  98 NW6       29.52S WCI  27
LONE ROCK      CLOUDY    39  32  76 NW8       29.54F WCI  33
MINERAL POINT  CLOUDY    36  34  93 NW8       29.52F WCI  29
MADISON        DRIZZLE   36  33  89 NW6       29.49F WCI  31
MIDDLETON      CLOUDY    36  36 100 NW7       29.50F WCI  31
WATERTOWN      CLOUDY    35  35 100 NW6       29.49S FOG     WCI  30
MONROE         CLOUDY    34  34 100 W9        29.50S WCI  26
JANESVILLE     CLOUDY    37  36  93 NW7       29.50F FOG     WCI  32
$$

WIZ051-052-058>065-066-070>072-242100-
SOUTHEAST WISCONSIN

CITY           SKY/WX    TMP DP  RH WIND       PRES   REMARKS
MILWAUKEE      CLOUDY    40  34  79 NW9       29.47F WCI  34
WAUKESHA       DRIZZLE   36  34  93 NW8       29.48F WCI  29
MILWAUKEE/TIMM CLOUDY    39  34  81 NW7       29.48F WCI  34
RACINE         CLOUDY    40  34  79 W7        29.48F
BURLINGTON     CLOUDY    36  34  94 NW7       29.48F WCI  30
KENOSHA        CLOUDY    39  35  86 W9        29.47F WCI  33
FOND DU LAC    CLOUDY    35  33  92 NW8       29.48R FOG     WCI  29
SHEBOYGAN      CLOUDY    38  35  89 NW8       29.47F WCI  32
WEST BEND      CLOUDY    36  32  87 NW6       29.47F WCI  31
JUNEAU         CLOUDY    35  35 100 NW5       29.49S WCI  31
$$

LSZ147-162-242100-
LAKE SUPERIOR

STATION/POSITION TIME  TEMP    WIND        PRES    WAVE
                       AIR SEA DIR/SP/G            HT/PER
                 (UTC) (F)     (DEG/KT/KT) (MB)    (FT/S)
DEVILS ISLAND    1900   33      50/  6/  7 1003.9F
PORT WING        1900   36      30/  4/  6 1003.7F
SAXON HARBOR     1900   33      10/  2/  3 1003.0F
$$

LMZ867-665-643>646-242100-
LAKE MICHIGAN

STATION/POSITION TIME  TEMP    WIND        PRES    WAVE
                       AIR SEA DIR/SP/G            HT/PER
                 (UTC) (F)     (DEG/KT/KT) (MB)    (FT/S)
CHAMBERS ISLAND  1900   35     320/  7/  8  999.7F
NORTHPORT PIER   1900   35     340/  9/ 11  999.3F
SISTER BAY       1943           20/  9/ 12   N/A
ALGOMA LAKESHORE 1915          330/ 10/ 12   N/A
KEWAUNEE LAKESHO 2000   37     310/  6/  8  997.3F
SHEBOYGAN LAKESH 2000   38 37  340/  8/  9  998.5F
PORT WASHINGTON  1900   40     310/  5/ 11  999.3F
MILWAUKEE LAKESH 2000   40     310/  4/  6   N/A
KENOSHA   LAKESH 1900   39     280/  7/  9  999.0F
$$

TC  - TEMPERATURE IN CELSIUS
VSB - VISIBILITY IN STATUTE MILES
WCI - WIND CHILL INDEX
HX  - HEAT INDEX



USA.gov is the U.S. government's official web portal to all federal, state and local government web resources and services.